Location: Winthrop
(48.4780°N, 120.1850°W)
Time: 15:20:13
(UTC-07:00)

Vanguard 3 - Pass Details

Date: 06 February 2023
Orbit: 508 x 3249 km, 33.3° (Epoch: 22 March)

Event Time Altitude Azimuth Distance (km) Brightness Sun altitude
Rises 20:09:02 0° 250° (WSW) 4,346 11.7 -30.3°
Reaches altitude 10° 20:11:43 10° 242° (WSW) 3,685 11.1 -30.7°
Maximum altitude 20:20:55 39° 178° (S) 2,922 9.7 -32.2°
Enters shadow 20:23:55 36° 154° (SSE) 3,293 9.8 -32.7°
